STARLINK-30436, 57880

Orbit data source: Space-Track

STARLINK-30436, 57880 is a payload satellite owned by SpaceX/Seattle (US) in LEO that was launched on Sat, 16 Sep 2023 UTC via an FALCON 9 launch vehicle from the Air Force Eastern Test Range (AFETR). Payload-class satellites include a variety of spacecraft equipped with specific instruments for various scientific and technological missions. These include communications satellites like Starlink; space stations such as the ISS; scientific satellites like the Hubble; Earth observation satellites from companies like Planet Labs, Umbra, and HawkEye 360; GPS; miniature CubeSats for education and research; and military/defense satellites.

Loading next visibility...
Identifier
57880, 2023-144S
Orbit
LEO
Country
Flag of USUS
Related business
Manufacturer
SpaceX/Seattle
Mission
Operational Commercial Communications
Bus & Motor
STARLINK V2M, Unknown motor
Mass
730 kg wet, ~700 kg dry
Launch date (UTC)
2023-09-16 (3 years ago)
Launch vehicle
FALCON 9
Launch site
Air Force Eastern Test Range (AFETR)
Object type
Payload
Rocket body
Debris
Shape & HBR
Box + 2 Pan, 17.7 m
Radar Cross Section
33.884 m², Large (>1 m²)

Expand to show TLE details & history
Last TLE update: 2 days ago

TLE from 2 days ago
0 STARLINK-30436
1 57880U 23144S   26171.10888645  .00003529  00000-0  13765-3 0  9993
2 57880  43.0055  66.5744 0000981 334.9020  25.1784 15.27593779153302
Epoch: 2026-06-20T02:36Z
TLE epoch observation values (Epoch: 2026-06-20T02:36:47.789Z)
Latitude
-0°
Longitude
119.04704°
Altitude
482.175 km
Speed
7.627 km/s
True Right ascension
04h 26m 17s
True Declination
0° 00' 00"
Sunlit
Object was in daylight at epoch
Visualization orbit readout
Latitude
Unknown
Longitude
Unknown
Altitude
Unknown
Speed
Unknown
Apparent Right ascension
Unknown
Apparent Declination
Unknown
Sunlit
N/A
Visualization observer readout
Local Sidereal Time
21:53:56
Azimuth
Unknown
Elevation
Unknown
Doppler factor
Unknown
Orbital elements
Apogee altitude
485.625 km
Perigee altitude
484.279 km
Semi-major axis
6,863.089 km
Eccentricity
0.0001
Inclination
43.0055°
RAAN
66.5744°
Arg. of periapsis
334.902°
True anomaly
25.18318°
Mean anomaly
25.1784°
Eccentric anomaly
25.18079°
Mean motion
3.81737 °/min
Orbital period
94.31 mins
BSTAR
0.00013765
Loading maneuver chart data...
Computing Atmospheric mass density...
Loading historical data...
Loading historical data...
Loading historical data...
Loading historical data...
Loading historical data...
Loading historical data...
Loading historical data...

Documentation

Showing up to 5 results
|